TimeEDT,TemperatureF,Dew PointF,Humidity,Sea Level PressureIn,VisibilityMPH,Wind Direction,Wind SpeedMPH,Gust SpeedMPH,PrecipitationIn,Events,Conditions,WindDirDegrees,DateUTC
12:15 AM,37.0,19.0,48,30.14,10.0,Calm,Calm,-,N/A,,Clear,0,2013-03-15 04:15:00
12:35 AM,37.4,18.0,45,30.14,10.0,Calm,Calm,-,N/A,,Clear,0,2013-03-15 04:35:00
12:55 AM,36.5,17.4,46,30.14,10.0,Calm,Calm,-,N/A,,Clear,0,2013-03-15 04:55:00
1:15 AM,35.1,18.7,51,30.15,10.0,Calm,Calm,-,N/A,,Clear,0,2013-03-15 05:15:00
1:35 AM,33.8,20.3,58,30.15,10.0,Calm,Calm,-,N/A,,Clear,0,2013-03-15 05:35:00
1:55 AM,33.4,20.5,59,30.15,10.0,Calm,Calm,-,N/A,,Clear,0,2013-03-15 05:55:00
2:15 AM,32.5,21.0,63,30.15,10.0,Calm,Calm,-,N/A,,Clear,0,2013-03-15 06:15:00
2:35 AM,30.2,20.7,68,30.16,10.0,Calm,Calm,-,N/A,,Clear,0,2013-03-15 06:35:00
2:55 AM,30.6,21.2,68,30.15,10.0,Calm,Calm,-,N/A,,Clear,0,2013-03-15 06:55:00
3:15 AM,32.5,21.0,63,30.15,10.0,Calm,Calm,-,N/A,,Clear,0,2013-03-15 07:15:00
3:55 AM,30.2,23.5,76,30.14,10.0,Calm,Calm,-,N/A,,Clear,0,2013-03-15 07:55:00
4:15 AM,30.2,23.4,76,30.14,10.0,Calm,Calm,-,N/A,,Clear,0,2013-03-15 08:15:00
4:55 AM,28.0,22.8,81,30.14,10.0,Calm,Calm,-,N/A,,Clear,0,2013-03-15 08:55:00
5:15 AM,27.9,22.6,81,30.14,10.0,Calm,Calm,-,N/A,,Clear,0,2013-03-15 09:15:00
5:35 AM,27.0,22.6,84,30.15,10.0,Calm,Calm,-,N/A,,Clear,0,2013-03-15 09:35:00
5:55 AM,25.3,21.4,85,30.15,10.0,Calm,Calm,-,N/A,,Clear,0,2013-03-15 09:55:00
6:15 AM,25.9,21.6,84,30.15,10.0,Calm,Calm,-,N/A,,Clear,0,2013-03-15 10:15:00
6:35 AM,26.4,21.7,82,30.16,10.0,Calm,Calm,-,N/A,,Clear,0,2013-03-15 10:35:00
6:55 AM,25.3,21.2,84,30.17,10.0,Calm,Calm,-,N/A,,Clear,0,2013-03-15 10:55:00
7:15 AM,25.3,21.0,84,30.16,10.0,Calm,Calm,-,N/A,,Clear,0,2013-03-15 11:15:00
7:35 AM,25.3,21.4,85,30.16,10.0,Calm,Calm,-,N/A,,Clear,0,2013-03-15 11:35:00
7:55 AM,25.3,21.0,84,30.16,10.0,Calm,Calm,-,N/A,,Clear,0,2013-03-15 11:55:00
8:15 AM,28.9,24.6,84,30.17,10.0,Calm,Calm,-,N/A,,Clear,0,2013-03-15 12:15:00
8:55 AM,34.7,26.8,73,30.17,10.0,Calm,Calm,-,N/A,,Clear,0,2013-03-15 12:55:00
9:15 AM,36.7,25.3,64,30.17,10.0,Calm,Calm,-,N/A,,Clear,0,2013-03-15 13:15:00
9:35 AM,39.2,25.3,58,30.17,10.0,Calm,Calm,-,N/A,,Clear,0,2013-03-15 13:35:00
9:55 AM,44.1,24.6,46,30.17,10.0,Calm,Calm,-,N/A,,Clear,0,2013-03-15 13:55:00
10:15 AM,45.1,20.5,38,30.15,10.0,Calm,Calm,-,N/A,,Clear,0,2013-03-15 14:15:00
10:35 AM,45.1,17.2,33,30.15,10.0,Calm,Calm,-,N/A,,Clear,0,2013-03-15 14:35:00
11:55 AM,50.0,14.4,24,30.10,10.0,Calm,Calm,-,N/A,,Clear,0,2013-03-15 15:55:00
12:15 PM,50.9,15.1,24,30.10,10.0,SSW,4.6,-,N/A,,Clear,200,2013-03-15 16:15:00
12:35 PM,52.5,13.6,21,30.09,10.0,SSW,3.5,-,N/A,,Clear,200,2013-03-15 16:35:00
12:55 PM,52.7,14.9,22,30.08,10.0,SW,3.5,-,N/A,,Clear,230,2013-03-15 16:55:00
1:15 PM,54.1,16.3,23,30.06,10.0,Calm,Calm,-,N/A,,Clear,0,2013-03-15 17:15:00
1:35 PM,54.5,17.6,23,30.05,10.0,SW,3.5,-,N/A,,Clear,220,2013-03-15 17:35:00
1:55 PM,55.0,17.6,23,30.03,10.0,SW,4.6,-,N/A,,Clear,230,2013-03-15 17:55:00
2:15 PM,56.3,20.8,25,30.02,10.0,Calm,Calm,-,N/A,,Clear,0,2013-03-15 18:15:00
2:35 PM,56.7,22.3,26,30.00,10.0,WSW,4.6,-,N/A,,Clear,250,2013-03-15 18:35:00
2:55 PM,57.6,23.7,27,29.99,10.0,SW,4.6,-,N/A,,Clear,220,2013-03-15 18:55:00
3:15 PM,56.3,24.8,30,29.98,10.0,Calm,Calm,-,N/A,,Clear,0,2013-03-15 19:15:00
3:35 PM,57.4,27.5,32,29.96,10.0,SW,3.5,-,N/A,,Clear,220,2013-03-15 19:35:00
3:55 PM,60.1,29.3,31,29.95,10.0,SW,4.6,-,N/A,,Clear,220,2013-03-15 19:55:00
4:15 PM,59.2,29.5,32,29.94,10.0,SSW,3.5,-,N/A,,Clear,200,2013-03-15 20:15:00
4:35 PM,58.1,29.5,34,29.93,10.0,Calm,Calm,-,N/A,,Clear,0,2013-03-15 20:35:00
4:55 PM,58.1,29.7,34,29.93,10.0,Calm,Calm,-,N/A,,Clear,0,2013-03-15 20:55:00
5:15 PM,58.1,30.9,36,29.93,10.0,Calm,Calm,-,N/A,,Clear,0,2013-03-15 21:15:00
5:35 PM,57.6,32.0,38,29.92,10.0,Calm,Calm,-,N/A,,Clear,0,2013-03-15 21:35:00
5:55 PM,56.8,30.7,37,29.92,10.0,SW,3.5,-,N/A,,Clear,220,2013-03-15 21:55:00
6:15 PM,56.3,31.1,38,29.92,10.0,Calm,Calm,-,N/A,,Clear,0,2013-03-15 22:15:00
6:35 PM,55.0,31.1,40,29.91,10.0,Calm,Calm,-,N/A,,Clear,0,2013-03-15 22:35:00
6:55 PM,55.0,30.9,40,29.91,10.0,Calm,Calm,-,N/A,,Clear,0,2013-03-15 22:55:00
7:15 PM,55.0,30.6,39,29.91,10.0,SSW,3.5,-,N/A,,Clear,200,2013-03-15 23:15:00
7:35 PM,55.0,31.8,41,29.91,10.0,SSW,3.5,-,N/A,,Clear,200,2013-03-15 23:35:00
7:55 PM,55.0,31.3,40,29.91,10.0,SSW,3.5,-,N/A,,Clear,200,2013-03-15 23:55:00
8:15 PM,55.0,31.6,41,29.91,10.0,SSW,3.5,-,N/A,,Clear,210,2013-03-16 00:15:00
8:35 PM,52.7,30.4,42,29.91,10.0,SSW,3.5,-,N/A,,Clear,210,2013-03-16 00:35:00
8:55 PM,53.2,29.8,41,29.91,10.0,SSW,3.5,-,N/A,,Clear,210,2013-03-16 00:55:00
9:15 PM,53.4,29.7,40,29.91,10.0,SSW,3.5,-,N/A,,Clear,210,2013-03-16 01:15:00
9:35 PM,52.7,30.2,42,29.91,10.0,SSW,3.5,-,N/A,,Clear,210,2013-03-16 01:35:00
9:55 PM,52.5,31.3,44,29.91,10.0,SSW,4.6,-,N/A,,Clear,210,2013-03-16 01:55:00
10:15 PM,51.4,31.1,46,29.91,10.0,Calm,Calm,-,N/A,,Clear,0,2013-03-16 02:15:00
10:35 PM,50.0,30.9,48,29.91,10.0,SSW,3.5,-,N/A,,Clear,210,2013-03-16 02:35:00
10:55 PM,50.0,31.1,48,29.91,10.0,SSW,3.5,-,N/A,,Clear,210,2013-03-16 02:55:00
11:15 PM,50.0,31.8,50,29.91,10.0,SSW,3.5,-,N/A,,Clear,210,2013-03-16 03:15:00
11:35 PM,50.0,32.0,50,29.90,10.0,Calm,Calm,-,N/A,,Clear,0,2013-03-16 03:35:00
11:55 PM,50.0,32.2,50,29.90,10.0,Calm,Calm,-,N/A,,Clear,0,2013-03-16 03:55:00